Regional Weather Roundup
Issued by NWS

Home | Current Version | Previous Version | Graphics & Text | Print | Product List | Glossary Off
Versions: 1 2 3 4 5 6 7 8 9 10 11 12 13 14 15 16 17 18 19 20 21 22 23 24 25 26 27 28 29 30 31 32 33 34 35 36 37 38 39 40 41 42 43 44 45 46 47 48 49 50

000
ASUS43 KDMX 041004
RWRIA

WEATHER ROUNDUP FOR IOWA
NATIONAL WEATHER SERVICE DES MOINES IA
  ISSUED BY NWS QUAD CITIES IA IL
400 AM CST WED MAR 04 2015

NOTE: "FAIR" INDICATES FEW OR NO CLOUDS BELOW 12,000 FEET WITH NO
SIGNIFICANT WEATHER AND/OR OBSTRUCTIONS TO VISIBILITY.

* - THESE STATIONS ARE NOT NWS STATIONS...THUS NOT UNDER NWS
QUALITY CONTROL.  THEY ALSO DO NOT REPORT WEATHER SUCH
AS PRECIPITATION OR FOG.

IAZ001>003-012>014-020>022-031>034-043>046-041100-
   NORTHWEST IOWA

CITY           SKY/WX    TMP DP  RH WIND       PRES   REMARKS
CARROLL *      CLOUDY    12   3  67 NW12      30.17R WCI  -2
CHEROKEE *     PTSUNNY   10   2  68 NW5       30.17R WCI   2
DENNISON *     CLOUDY    12   5  73 NW7       30.15S WCI   2
LE MARS *      PTCLDY     7   3  85 NW5       30.19R WCI  -2
ORANGE CITY *  PTCLDY     9   0  66 NW6       30.15S WCI  -1
SHELDON *      PTCLDY     5  -2  72 W8        30.14S WCI  -8
SIOUX CITY     MOCLDY    13   5  70 NW6       30.19S WCI   4
SPENCER        PTCLDY     4  -3  73 W8        30.14S WCI  -9
STORM LAKE *   CLOUDY    10   1  67 NW9       30.14S WCI  -2
$$

IAZ055>058-069>071-079>083-090>094-041100-
   SOUTHWEST IOWA

CITY           SKY/WX    TMP DP  RH WIND       PRES   REMARKS
ATLANTIC *     MOCLDY    14   3  62 N8G14     30.17R WCI   3
AUDUBON *      MOCLDY    12   3  67 NW8       30.16R WCI   1
CLARINDA *     FLURRIES  16  12  86 N12       30.20S WCI   3
COUNCIL BLFS * CLOUDY    16  12  86 NW5       30.17R WCI   9
CRESTON *      CLOUDY    14   5  67 N10       30.15R WCI   1
HARLAN *       MOCLDY    14   7  73 N9        30.20R WCI   2
LAMONI         CLOUDY    15   6  67 N14       30.14R WCI   0
RED OAK *      LGT SNOW  16  12  86 N8        30.19R WCI   5
SHENANDOAH *   FLURRIES  16  12  86 N10       30.21S WCI   3
$$

IAZ047>049-059>061-072>074-084-041100-
   CENTRAL IOWA

CITY           SKY/WX    TMP DP  RH WIND       PRES   REMARKS
AMES           CLOUDY    12   1  61 N22       30.15S WCI  -7
ANKENY *       CLOUDY    14   1  57 NW13G20   30.17S WCI   0
BOONE *        CLOUDY    12   1  62 N16G24    30.13S WCI  -4
CHARITON *     CLOUDY    16   5  62 N12       30.15R WCI   3
DES MOINES     MOCLDY    15   1  53 N12       30.16S WCI   2
GRINNELL *     PTSUNNY   11   3  70 NW14      30.13R WCI  -4
KNOXVILLE *    CLOUDY    14   1  57 N18       30.15R WCI  -3
MARSHALLTOWN   CLOUDY    11   1  64 NW20      30.12R WCI  -7
NEWTON *       CLOUDY    12   1  62 N16       30.14F WCI  -4
PELLA *        CLEAR     14   8  75 NW20      30.16F WCI  -3
PERRY *          N/A     14   4  64 NW18      30.16F WCI  -3
$$

IAZ004>006-015-016-023>025-035-036-041100-
   NORTH CENTRAL IOWA

CITY           SKY/WX    TMP DP  RH WIND       PRES   REMARKS
ALGONA *       MOCLDY     9 N/A N/A NW15      30.15R WCI  -8
CLARION *      CLOUDY     7  -4  61 NW17G25   30.13S WCI -12
ESTHERVILLE    PTCLDY     2  -5  72 NW8       30.12S WCI -12
FORT DODGE *   PTCLDY     9  -4  56 NW8G16    30.15S WCI  -4
MASON CITY     CLEAR      5  -5  63 NW20      30.12R WCI -15
WEBSTER CITY * CLOUDY    10  -2  56 NW23G30   30.12S WCI -10
IOWA FALLS *   CLOUDY    10  -2  59 NW26      30.13R WCI -11
$$

IAZ007>011-017>019-026>030-037>042-050>054-066-041100-
   NORTHEAST IOWA

CITY           SKY/WX    TMP DP  RH WIND       PRES   REMARKS
CEDAR RAPIDS   CLEAR      7   2  80 NW13      30.10R WCI  -9
CHARLES CITY * CLOUDY     7  -2  66 NW21      30.10R WCI -13
CLINTON *      CLEAR      9   0  66 NW12      30.09R WCI  -6
DECORAH *      MOCLDY     5  -4  66 NW12      30.04R WCI -11
DUBUQUE          N/A    N/A N/A N/A MISG      30.03R
MONTICELLO *   CLOUDY     9   1  72 NW13      30.08R WCI  -7
OELWEIN *      CLOUDY     9   0  66 NW18G26   30.08R WCI -10
WATERLOO       CLOUDY     9   0  67 NW21G30   30.11R WCI -11
$$

IAZ064-065-067-068-078-041100-
   EAST CENTRAL IOWA

CITY           SKY/WX    TMP DP  RH WIND       PRES   REMARKS
DAVENPORT      CLEAR      9   0  67 NW16      30.08R WCI  -8
IOWA CITY      CLEAR     10   3  73 NW13      30.13R WCI  -5
MT. PLEASANT * MOCLDY    12   3  67 NW9G18    30.13S WCI   0
MUSCATINE *    PTCLDY    12   5  73 NW15      30.13R WCI  -4
QUAD CITIES    PTCLDY    12   2  64 NW17G24   30.09R WCI  -5
$$

IAZ062-063-075>077-085>089-095>099-041100-
   SOUTHEAST IOWA

CITY           SKY/WX    TMP DP  RH WIND       PRES   REMARKS
BURLINGTON     PTCLDY    13   4  67 NW15G23   30.11R WCI  -3
FAIRFIELD *    CLEAR     12   1  62 NW16      30.14S WCI  -4
FORT MADISON * PTCLDY    12   7  79 NW13G22   30.12R WCI  -3
KEOKUK *       CLOUDY    16   7  67 N12G20    30.11F WCI   3
OSKALOOSA *    PTSUNNY   12   5  71 NW15      30.15R WCI  -4
CENTERVILLE *  PTSUNNY   16   9  73 NW15      30.14S WCI   1
OTTUMWA        CLOUDY    13   4  67 NW14      30.15R WCI  -2
WASHINGTON *   CLEAR     12   7  79 NW17G23   30.14R WCI  -5
$$

ABBREVIATIONS USED IN REMARKS
   TC - TEMPERATURES IN CELSIUS
  WCI - WIND CHILL INDEX
   HX - HEAT INDEX
  VSB - VISIBILITY
$$



USA.gov is the U.S. government's official web portal to all federal, state and local government web resources and services.